QPF
0.00 0.00 0.00 0.00 0.01 0.01 0.01 0.01 0.02 0.02 0.03 0.03 0.03 0.02 0.02 0.02 0.01 0.02 0.02 0.01 0.01 0.01 0.01 0.01 0.00 0.00 0.01 0.02 0.02 0.02 0.02 0.02 0.02 0.01 0.01 0.02 0.01 0.00 0.00 0.02 0.10 0.15 0.03
0.00 0.00 0.00 0.00 0.01 0.01 0.01 0.01 0.01 0.01 0.02 0.02 0.02 0.02 0.01 0.02 0.02 0.02 0.01 0.01 0.01 0.01 0.01 0.01 0.01 0.02 0.04 0.04 0.05 0.05 0.05 0.04 0.03 0.03 0.05 0.06 0.02 0.01 0.01 0.04 0.13 0.12 0.04
0.00 0.00 0.00 0.00 0.01 0.01 0.01 0.01 0.00 0.01 0.01 0.01 0.01 0.01 0.00 0.01 0.01 0.01 0.01 0.01 0.01 0.01 0.02 0.01 0.02 0.05 0.06 0.06 0.08 0.08 0.07 0.05 0.03 0.06 0.19 0.22 0.08 0.02 0.01 0.03 0.04 0.03 0.03
0.00 0.00 0.00 0.00 0.01 0.01 0.00 0.00 0.00 0.00 0.00 0.00 0.01 0.00 0.00 0.00 0.00 0.01 0.01 0.01 0.01 0.01 0.01 0.02 0.04 0.06 0.06 0.06 0.08 0.08 0.06 0.05 0.05 0.12 0.26 0.23 0.12 0.02 0.02 0.03 0.03 0.03 0.03
0.00 0.00 0.00 0.00 0.00 0.00 0.00 0.00 0.01 0.01 0.00 0.00 0.00 0.01 0.01 0.00 0.00 0.00 0.00 0.00 0.00 0.00 0.00 0.01 0.02 0.04 0.05 0.07 0.07 0.07 0.06 0.06 0.07 0.13 0.18 0.19 0.14 0.03 0.02 0.04 0.05 0.03 0.03
0.00 0.00 0.00 0.00 0.00 0.00 0.00 0.01 0.01 0.01 0.00 0.00 0.00 0.00 0.01 0.01 0.00 0.00 0.00 0.00 0.00 0.00 0.01 0.01 0.01 0.02 0.04 0.05 0.06 0.07 0.07 0.07 0.13 0.16 0.14 0.16 0.12 0.02 0.01 0.03 0.05 0.06 0.06
0.00 0.00 0.00 0.00 0.00 0.01 0.01 0.01 0.02 0.01 0.01 0.00 0.00 0.00 0.00 0.00 0.00 0.00 0.00 0.00 0.00 0.00 0.00 0.00 0.01 0.02 0.02 0.04 0.05 0.06 0.05 0.06 0.16 0.15 0.11 0.12 0.05 0.00 0.00 0.01 0.03 0.06 0.08
0.00 0.00 0.00 0.01 0.01 0.01 0.01 0.02 0.02 0.01 0.02 0.02 0.01 0.01 0.00 0.00 0.00 0.00 0.00 0.00 0.00 0.00 0.00 0.00 0.00 0.01 0.01 0.02 0.03 0.04 0.04 0.05 0.11 0.09 0.10 0.09 0.02 0.00 0.01 0.01 0.02 0.05 0.07
0.00 0.00 0.01 0.02 0.02 0.02 0.02 0.03 0.04 0.04 0.04 0.04 0.04 0.03 0.01 0.00 0.00 0.00 0.00 0.00 0.00 0.00 0.00 0.00 0.00 0.00 0.01 0.01 0.02 0.03 0.03 0.04 0.06 0.04 0.07 0.06 0.01 0.00 0.01 0.02 0.02 0.04 0.04
0.00 0.01 0.02 0.05 0.05 0.07 0.10 0.12 0.09 0.07 0.07 0.08 0.07 0.05 0.02 0.01 0.00 0.00 0.00 0.00 0.00 0.00 0.00 0.00 0.00 0.00 0.01 0.01 0.01 0.02 0.01 0.01 0.03 0.02 0.03 0.01 0.00 0.00 0.00 0.01 0.01 0.02 0.02
0.01 0.01 0.02 0.04 0.06 0.06 0.07 0.15 0.14 0.13 0.15 0.13 0.10 0.06 0.03 0.02 0.05 0.05 0.02 0.02 0.00 0.00 0.00 0.00 0.01 0.01 0.01 0.01 0.01 0.01 0.01 0.02 0.03 0.03 0.04 0.01 0.00 0.00 0.00 0.00 0.00 0.00 0.01
0.05 0.04 0.03 0.03 0.04 0.04 0.04 0.09 0.17 0.19 0.29 0.21 0.24 0.24 0.14 0.12 0.16 0.13 0.10 0.05 0.01 0.00 0.00 0.00 0.00 0.00 0.00 0.01 0.00 0.00 0.01 0.02 0.02 0.02 0.02 0.01 0.00 0.00 0.00 0.00 0.00 0.00 0.00
0.07 0.07 0.06 0.06 0.06 0.06 0.08 0.10 0.17 0.20 0.24 0.25 0.33 0.42 0.41 0.32 0.21 0.12 0.15 0.11 0.02 0.01 0.00 0.00 0.00 0.00 0.00 0.00 0.01 0.00 0.01 0.01 0.02 0.02 0.02 0.01 0.00 0.00 0.00 0.00 0.00 0.00 0.00
0.06 0.07 0.07 0.07 0.07 0.08 0.11 0.14 0.19 0.20 0.22 0.26 0.23 0.30 0.36 0.36 0.24 0.14 0.17 0.16 0.09 0.04 0.01 0.01 0.00 0.00 0.00 0.00 0.00 0.00 0.00 0.00 0.01 0.01 0.01 0.00 0.00 0.00 0.00 0.00 0.00 0.00 0.00
0.06 0.07 0.08 0.07 0.07 0.08 0.10 0.14 0.16 0.20 0.27 0.36 0.29 0.24 0.30 0.32 0.25 0.17 0.11 0.11 0.08 0.05 0.02 0.01 0.00 0.00 0.00 0.00 0.00 0.00 0.00 0.00 0.00 0.00 0.00 0.00 0.00 0.00 0.00 0.00 0.00 0.00 0.00
0.04 0.05 0.06 0.05 0.06 0.07 0.08 0.11 0.11 0.12 0.16 0.17 0.16 0.15 0.23 0.29 0.25 0.22 0.12 0.10 0.07 0.04 0.02 0.01 0.00 0.00 0.00 0.00 0.00 0.00 0.00 0.00 0.00 0.00 0.00 0.00 0.00 0.00 0.00 0.00 0.00 0.00 0.00
0.02 0.02 0.03 0.03 0.03 0.04 0.05 0.08 0.10 0.09 0.11 0.15 0.16 0.15 0.18 0.24 0.24 0.24 0.18 0.13 0.09 0.07 0.04 0.02 0.00 0.00 0.00 0.00 0.00 0.00 0.00 0.00 0.00 0.00 0.00 0.00 0.00 0.00 0.00 0.00 0.00 0.00 0.01
0.01 0.01 0.01 0.01 0.01 0.01 0.01 0.02 0.04 0.07 0.09 0.11 0.15 0.15 0.17 0.23 0.27 0.30 0.26 0.16 0.10 0.15 0.12 0.06 0.01 0.00 0.00 0.00 0.00 0.00 0.00 0.00 0.00 0.00 0.00 0.00 0.00 0.00 0.00 0.00 0.00 0.00 0.00
0.00 0.00 0.00 0.00 0.00 0.00 0.00 0.01 0.02 0.03 0.05 0.08 0.12 0.17 0.17 0.15 0.18 0.27 0.28 0.20 0.15 0.17 0.16 0.10 0.05 0.01 0.00 0.00 0.00 0.00 0.00 0.00 0.00 0.00 0.00 0.00 0.00 0.00 0.00 0.00 0.00 0.00 0.00
0.00 0.00 0.00 0.00 0.00 0.00 0.00 0.00 0.01 0.02 0.03 0.05 0.08 0.11 0.14 0.15 0.13 0.15 0.18 0.18 0.19 0.21 0.18 0.14 0.11 0.06 0.02 0.01 0.01 0.01 0.00 0.00 0.00 0.00 0.00 0.00 0.00 0.00 0.00 0.00 0.00 0.00 0.00
0.00 0.00 0.00 0.00 0.00 0.00 0.00 0.00 0.01 0.02 0.02 0.03 0.04 0.06 0.09 0.09 0.09 0.11 0.13 0.15 0.19 0.22 0.20 0.17 0.18 0.15 0.09 0.04 0.04 0.04 0.03 0.01 0.01 0.00 0.00 0.00 0.00 0.00 0.00 0.00 0.00 0.00 0.00
0.00 0.00 0.00 0.00 0.00 0.00 0.01 0.01 0.01 0.01 0.02 0.02 0.03 0.04 0.07 0.09 0.09 0.08 0.09 0.11 0.16 0.20 0.21 0.21 0.23 0.24 0.16 0.09 0.11 0.15 0.14 0.10 0.05 0.01 0.01 0.00 0.00 0.00 0.00 0.01 0.00 0.00 0.00
0.01 0.01 0.00 0.01 0.01 0.01 0.01 0.02 0.03 0.03 0.03 0.04 0.04 0.05 0.07 0.09 0.10 0.10 0.12 0.13 0.16 0.22 0.24 0.23 0.21 0.23 0.22 0.16 0.12 0.13 0.14 0.15 0.16 0.07 0.02 0.02 0.02 0.01 0.00 0.00 0.01 0.01 0.01
0.02 0.02 0.02 0.02 0.03 0.05 0.06 0.07 0.07 0.06 0.06 0.07 0.07 0.07 0.07 0.08 0.08 0.11 0.15 0.20 0.22 0.25 0.26 0.28 0.25 0.22 0.23 0.21 0.17 0.11 0.09 0.10 0.17 0.18 0.12 0.07 0.04 0.02 0.01 0.01 0.01 0.01 0.01
0.03 0.03 0.05 0.06 0.08 0.12 0.14 0.15 0.15 0.14 0.16 0.14 0.12 0.08 0.08 0.09 0.09 0.09 0.14 0.20 0.24 0.26 0.27 0.32 0.32 0.29 0.25 0.23 0.17 0.13 0.12 0.11 0.10 0.13 0.18 0.16 0.10 0.06 0.03 0.02 0.01 0.01 0.01
0.04 0.05 0.07 0.09 0.12 0.15 0.17 0.18 0.18 0.18 0.17 0.15 0.15 0.14 0.14 0.12 0.10 0.10 0.13 0.17 0.19 0.22 0.27 0.30 0.32 0.31 0.29 0.29 0.23 0.15 0.12 0.11 0.09 0.10 0.12 0.14 0.16 0.13 0.09 0.07 0.04 0.02 0.02
MSLP
1012.84 1012.65 1012.56 1012.63 1012.84 1013.18 1013.56 1013.92 1014.21 1014.41 1014.51 1014.55 1014.60 1014.68 1014.83 1015.05 1015.32 1015.60 1015.85 1016.03 1016.14 1016.17 1016.16 1016.13 1016.10 1016.10 1016.12 1016.16 1016.19 1016.21 1016.20 1016.17 1016.13 1016.09 1016.07 1016.08 1016.10 1016.15 1016.19 1016.23 1016.26 1016.27 1016.29
1012.77 1012.67 1012.67 1012.83 1013.12 1013.49 1013.89 1014.23 1014.48 1014.62 1014.67 1014.69 1014.71 1014.79 1014.94 1015.17 1015.43 1015.69 1015.91 1016.07 1016.15 1016.18 1016.18 1016.18 1016.19 1016.24 1016.30 1016.35 1016.39 1016.39 1016.35 1016.29 1016.23 1016.18 1016.17 1016.20 1016.27 1016.35 1016.42 1016.47 1016.49 1016.48 1016.46
1012.60 1012.60 1012.72 1012.98 1013.34 1013.77 1014.18 1014.51 1014.73 1014.84 1014.86 1014.85 1014.86 1014.94 1015.09 1015.30 1015.53 1015.75 1015.93 1016.03 1016.08 1016.09 1016.09 1016.12 1016.18 1016.28 1016.39 1016.47 1016.52 1016.51 1016.45 1016.37 1016.29 1016.24 1016.26 1016.32 1016.43 1016.56 1016.66 1016.73 1016.74 1016.71 1016.66
1012.30 1012.41 1012.65 1013.02 1013.47 1013.96 1014.40 1014.73 1014.94 1015.02 1015.03 1015.02 1015.03 1015.12 1015.26 1015.46 1015.66 1015.82 1015.93 1015.98 1015.97 1015.96 1015.97 1016.02 1016.13 1016.28 1016.42 1016.54 1016.59 1016.58 1016.51 1016.41 1016.32 1016.29 1016.33 1016.44 1016.60 1016.78 1016.92 1017.01 1017.02 1016.97 1016.89
1011.92 1012.13 1012.47 1012.94 1013.49 1014.03 1014.50 1014.84 1015.05 1015.13 1015.14 1015.14 1015.18 1015.29 1015.45 1015.63 1015.80 1015.93 1015.98 1015.96 1015.92 1015.88 1015.89 1015.96 1016.10 1016.28 1016.46 1016.59 1016.64 1016.62 1016.53 1016.42 1016.34 1016.33 1016.40 1016.56 1016.76 1016.98 1017.16 1017.26 1017.28 1017.23 1017.13
1011.54 1011.81 1012.23 1012.79 1013.40 1013.99 1014.48 1014.83 1015.04 1015.13 1015.16 1015.19 1015.27 1015.41 1015.60 1015.80 1015.97 1016.07 1016.08 1016.03 1015.95 1015.90 1015.90 1015.99 1016.15 1016.34 1016.53 1016.66 1016.70 1016.66 1016.55 1016.43 1016.35 1016.36 1016.46 1016.66 1016.90 1017.15 1017.36 1017.48 1017.51 1017.45 1017.35
1011.26 1011.55 1012.02 1012.63 1013.27 1013.88 1014.37 1014.71 1014.91 1015.01 1015.06 1015.13 1015.26 1015.46 1015.69 1015.93 1016.11 1016.22 1016.22 1016.17 1016.08 1016.03 1016.04 1016.13 1016.30 1016.49 1016.66 1016.77 1016.78 1016.71 1016.58 1016.45 1016.37 1016.39 1016.52 1016.74 1017.02 1017.29 1017.51 1017.64 1017.67 1017.62 1017.53
1011.19 1011.47 1011.95 1012.55 1013.18 1013.76 1014.22 1014.53 1014.70 1014.79 1014.86 1014.97 1015.15 1015.40 1015.69 1015.97 1016.20 1016.33 1016.36 1016.32 1016.26 1016.22 1016.25 1016.35 1016.51 1016.69 1016.84 1016.90 1016.88 1016.77 1016.62 1016.47 1016.40 1016.43 1016.58 1016.82 1017.10 1017.38 1017.60 1017.73 1017.76 1017.71 1017.63
1011.42 1011.66 1012.08 1012.63 1013.20 1013.71 1014.10 1014.34 1014.46 1014.52 1014.59 1014.72 1014.94 1015.24 1015.58 1015.91 1016.17 1016.34 1016.42 1016.42 1016.40 1016.40 1016.46 1016.57 1016.73 1016.89 1016.99 1017.02 1016.95 1016.80 1016.63 1016.48 1016.42 1016.47 1016.63 1016.88 1017.18 1017.45 1017.65 1017.77 1017.79 1017.75 1017.69
1011.94 1012.11 1012.46 1012.92 1013.38 1013.78 1014.05 1014.19 1014.24 1014.26 1014.31 1014.44 1014.68 1015.00 1015.37 1015.73 1016.03 1016.23 1016.34 1016.39 1016.42 1016.46 1016.55 1016.69 1016.84 1016.98 1017.06 1017.04 1016.94 1016.77 1016.59 1016.45 1016.41 1016.48 1016.67 1016.94 1017.24 1017.50 1017.69 1017.79 1017.80 1017.76 1017.71
1012.70 1012.80 1013.05 1013.39 1013.71 1013.96 1014.10 1014.13 1014.09 1014.04 1014.06 1014.18 1014.41 1014.73 1015.10 1015.46 1015.76 1015.98 1016.11 1016.19 1016.26 1016.34 1016.47 1016.62 1016.78 1016.91 1016.96 1016.92 1016.80 1016.63 1016.46 1016.35 1016.34 1016.46 1016.69 1016.98 1017.29 1017.55 1017.73 1017.82 1017.82 1017.78 1017.74
1013.58 1013.61 1013.76 1013.96 1014.14 1014.23 1014.22 1014.14 1014.01 1013.90 1013.88 1013.97 1014.18 1014.47 1014.81 1015.13 1015.40 1015.60 1015.73 1015.82 1015.91 1016.02 1016.17 1016.34 1016.51 1016.63 1016.67 1016.62 1016.50 1016.34 1016.20 1016.14 1016.19 1016.37 1016.65 1016.98 1017.32 1017.60 1017.78 1017.87 1017.87 1017.84 1017.80
1014.43 1014.41 1014.47 1014.54 1014.57 1014.51 1014.38 1014.18 1013.98 1013.83 1013.78 1013.84 1014.02 1014.27 1014.54 1014.80 1015.01 1015.15 1015.24 1015.32 1015.41 1015.53 1015.69 1015.87 1016.04 1016.16 1016.20 1016.15 1016.04 1015.92 1015.83 1015.83 1015.95 1016.20 1016.54 1016.93 1017.30 1017.61 1017.82 1017.93 1017.95 1017.93 1017.91
1015.11 1015.06 1015.04 1015.01 1014.90 1014.73 1014.48 1014.21 1013.96 1013.79 1013.72 1013.77 1013.92 1014.12 1014.33 1014.50 1014.62 1014.69 1014.73 1014.77 1014.84 1014.95 1015.12 1015.30 1015.47 1015.58 1015.62 1015.58 1015.50 1015.41 1015.37 1015.44 1015.63 1015.94 1016.35 1016.79 1017.21 1017.56 1017.81 1017.95 1018.01 1018.03 1018.03
1015.54 1015.48 1015.41 1015.28 1015.07 1014.80 1014.48 1014.17 1013.91 1013.74 1013.69 1013.74 1013.86 1014.02 1014.16 1014.25 1014.29 1014.28 1014.25 1014.25 1014.29 1014.40 1014.55 1014.73 1014.90 1015.01 1015.05 1015.02 1014.95 1014.90 1014.90 1015.02 1015.26 1015.63 1016.08 1016.57 1017.03 1017.42 1017.71 1017.91 1018.02 1018.09 1018.14
1015.72 1015.64 1015.52 1015.32 1015.04 1014.70 1014.35 1014.03 1013.79 1013.65 1013.62 1013.69 1013.81 1013.93 1014.02 1014.04 1014.01 1013.93 1013.86 1013.82 1013.85 1013.95 1014.11 1014.29 1014.45 1014.56 1014.59 1014.57 1014.51 1014.48 1014.51 1014.64 1014.91 1015.30 1015.76 1016.26 1016.74 1017.16 1017.50 1017.74 1017.92 1018.05 1018.17
1015.72 1015.62 1015.44 1015.18 1014.85 1014.47 1014.11 1013.80 1013.59 1013.50 1013.51 1013.60 1013.71 1013.81 1013.86 1013.83 1013.75 1013.64 1013.55 1013.51 1013.54 1013.66 1013.83 1014.02 1014.19 1014.31 1014.35 1014.33 1014.27 1014.24 1014.27 1014.40 1014.65 1015.02 1015.46 1015.93 1016.39 1016.81 1017.16 1017.45 1017.68 1017.89 1018.08
1015.65 1015.50 1015.28 1014.96 1014.58 1014.18 1013.82 1013.53 1013.36 1013.30 1013.34 1013.45 1013.55 1013.63 1013.64 1013.59 1013.49 1013.37 1013.29 1013.28 1013.35 1013.51 1013.72 1013.95 1014.15 1014.28 1014.33 1014.32 1014.27 1014.23 1014.24 1014.34 1014.55 1014.85 1015.22 1015.62 1016.02 1016.39 1016.73 1017.03 1017.30 1017.58 1017.85
1015.64 1015.43 1015.13 1014.76 1014.34 1013.93 1013.57 1013.30 1013.15 1013.11 1013.16 1013.25 1013.34 1013.38 1013.36 1013.28 1013.18 1013.08 1013.04 1013.08 1013.22 1013.44 1013.72 1014.00 1014.25 1014.42 1014.50 1014.51 1014.48 1014.43 1014.43 1014.49 1014.62 1014.83 1015.09 1015.39 1015.68 1015.97 1016.26 1016.54 1016.83 1017.14 1017.48
1015.77 1015.48 1015.11 1014.68 1014.23 1013.80 1013.44 1013.18 1013.03 1012.99 1013.01 1013.06 1013.09 1013.07 1013.01 1012.90 1012.79 1012.71 1012.72 1012.83 1013.05 1013.36 1013.71 1014.07 1014.38 1014.62 1014.75 1014.81 1014.81 1014.78 1014.77 1014.79 1014.86 1014.97 1015.11 1015.28 1015.45 1015.62 1015.82 1016.04 1016.32 1016.65 1017.03
1016.09 1015.71 1015.26 1014.78 1014.30 1013.86 1013.49 1013.23 1013.06 1012.98 1012.94 1012.92 1012.86 1012.76 1012.62 1012.46 1012.33 1012.27 1012.31 1012.49 1012.78 1013.16 1013.60 1014.04 1014.43 1014.74 1014.95 1015.08 1015.14 1015.15 1015.16 1015.17 1015.19 1015.23 1015.26 1015.30 1015.33 1015.39 1015.47 1015.62 1015.85 1016.16 1016.56
1016.54 1016.08 1015.57 1015.05 1014.55 1014.10 1013.73 1013.46 1013.26 1013.12 1013.00 1012.87 1012.69 1012.48 1012.24 1012.01 1011.83 1011.75 1011.81 1012.01 1012.35 1012.79 1013.29 1013.79 1014.26 1014.65 1014.95 1015.17 1015.31 1015.41 1015.47 1015.51 1015.53 1015.52 1015.48 1015.42 1015.35 1015.29 1015.27 1015.33 1015.49 1015.76 1016.14
1017.05 1016.53 1015.98 1015.44 1014.93 1014.49 1014.13 1013.84 1013.60 1013.40 1013.18 1012.93 1012.63 1012.29 1011.92 1011.59 1011.34 1011.21 1011.24 1011.43 1011.77 1012.23 1012.75 1013.30 1013.81 1014.27 1014.66 1014.97 1015.23 1015.43 1015.58 1015.69 1015.75 1015.75 1015.69 1015.59 1015.45 1015.31 1015.21 1015.19 1015.29 1015.50 1015.84
1017.50 1016.95 1016.39 1015.85 1015.36 1014.94 1014.59 1014.30 1014.03 1013.77 1013.46 1013.10 1012.67 1012.19 1011.71 1011.27 1010.91 1010.70 1010.67 1010.80 1011.10 1011.53 1012.03 1012.57 1013.10 1013.60 1014.06 1014.46 1014.82 1015.13 1015.40 1015.61 1015.76 1015.82 1015.81 1015.72 1015.58 1015.42 1015.28 1015.21 1015.25 1015.41 1015.69
1017.82 1017.27 1016.71 1016.20 1015.74 1015.35 1015.03 1014.74 1014.46 1014.15 1013.78 1013.32 1012.79 1012.20 1011.61 1011.06 1010.60 1010.30 1010.17 1010.22 1010.44 1010.78 1011.22 1011.71 1012.22 1012.72 1013.21 1013.67 1014.12 1014.54 1014.92 1015.25 1015.52 1015.69 1015.77 1015.75 1015.67 1015.54 1015.42 1015.35 1015.36 1015.47 1015.69
1017.97 1017.43 1016.91 1016.43 1016.02 1015.67 1015.37 1015.10 1014.81 1014.48 1014.06 1013.55 1012.95 1012.29 1011.61 1010.98 1010.44 1010.05 1009.82 1009.78 1009.88 1010.13 1010.47 1010.87 1011.31 1011.77 1012.25 1012.74 1013.23 1013.73 1014.21 1014.66 1015.05 1015.35 1015.55 1015.66 1015.68 1015.64 1015.58 1015.54 1015.56 1015.65 1015.82
Thickness
5810 5807 5802 5799 5797 5795 5792 5790 5787 5784 5782 5780 5778 5776 5774 5772 5771 5770 5769 5768 5767 5767 5767 5767 5767 5768 5768 5769 5770 5771 5772 5773 5774 5775 5776 5776 5777 5777 5777 5777 5777 5776 5775
5815 5807 5803 5800 5797 5795 5793 5790 5788 5785 5783 5781 5779 5777 5775 5773 5772 5770 5769 5768 5767 5767 5766 5766 5766 5766 5766 5767 5767 5768 5769 5770 5771 5772 5772 5773 5773 5774 5774 5774 5774 5773 5773
5816 5808 5803 5800 5798 5796 5793 5791 5789 5786 5784 5782 5780 5778 5776 5774 5773 5771 5770 5769 5768 5767 5766 5765 5765 5765 5765 5765 5765 5765 5766 5767 5768 5769 5769 5769 5770 5770 5771 5771 5770 5770 5770
5816 5809 5805 5800 5798 5796 5793 5791 5789 5787 5785 5783 5781 5779 5777 5776 5774 5772 5771 5770 5768 5767 5766 5765 5765 5764 5764 5763 5763 5763 5764 5765 5766 5767 5767 5766 5768 5767 5768 5768 5768 5768 5768
5818 5811 5804 5800 5797 5795 5793 5791 5789 5788 5786 5784 5782 5780 5778 5777 5775 5774 5772 5770 5769 5767 5766 5765 5765 5764 5763 5763 5763 5762 5763 5764 5766 5766 5765 5765 5765 5765 5766 5766 5765 5765 5765
5817 5810 5802 5799 5796 5794 5792 5790 5789 5787 5786 5784 5783 5781 5779 5778 5776 5775 5773 5771 5770 5768 5767 5766 5765 5764 5763 5763 5763 5763 5763 5764 5765 5766 5765 5765 5764 5764 5764 5764 5763 5763 5764
5817 5809 5802 5798 5795 5792 5791 5789 5788 5786 5785 5784 5783 5781 5780 5778 5777 5775 5774 5772 5771 5769 5768 5767 5765 5765 5764 5763 5763 5763 5764 5764 5766 5766 5766 5765 5763 5763 5762 5762 5762 5762 5762
5816 5810 5802 5798 5795 5793 5790 5788 5787 5786 5784 5783 5782 5780 5779 5778 5777 5775 5774 5773 5772 5770 5769 5768 5766 5765 5764 5764 5763 5764 5764 5765 5767 5768 5767 5765 5763 5762 5762 5761 5761 5761 5761
5815 5810 5803 5799 5795 5793 5791 5789 5787 5785 5784 5783 5781 5780 5779 5777 5776 5775 5774 5773 5772 5771 5770 5769 5768 5766 5765 5765 5764 5765 5765 5766 5768 5770 5768 5765 5763 5762 5761 5761 5761 5761 5760
5811 5808 5804 5801 5797 5794 5791 5789 5787 5785 5784 5782 5781 5780 5778 5777 5776 5775 5774 5773 5772 5771 5770 5770 5769 5768 5767 5766 5766 5766 5767 5768 5770 5771 5768 5765 5763 5762 5761 5761 5761 5760 5760
5801 5801 5800 5799 5797 5795 5793 5790 5787 5785 5783 5781 5780 5779 5778 5777 5776 5775 5774 5773 5772 5771 5770 5770 5769 5769 5768 5767 5767 5768 5768 5770 5772 5771 5769 5766 5764 5762 5761 5761 5760 5760 5760
5786 5790 5792 5792 5791 5791 5792 5790 5787 5784 5782 5780 5779 5778 5777 5777 5778 5777 5776 5774 5772 5771 5770 5770 5770 5769 5769 5769 5769 5769 5770 5772 5774 5772 5768 5767 5765 5763 5762 5761 5760 5760 5760
5777 5778 5781 5782 5783 5783 5784 5784 5784 5783 5781 5778 5777 5777 5776 5776 5777 5777 5776 5774 5772 5771 5770 5770 5769 5770 5771 5773 5773 5772 5773 5776 5776 5773 5768 5767 5765 5763 5762 5761 5760 5760 5760
5767 5768 5771 5772 5773 5774 5776 5777 5777 5777 5776 5775 5774 5775 5774 5773 5775 5776 5775 5774 5773 5772 5772 5772 5771 5773 5775 5777 5777 5777 5778 5778 5776 5772 5768 5766 5765 5763 5762 5761 5760 5760 5759
5759 5761 5762 5764 5764 5765 5767 5769 5770 5770 5770 5768 5769 5772 5770 5770 5771 5774 5774 5775 5775 5774 5774 5774 5774 5778 5779 5782 5781 5781 5780 5779 5777 5773 5768 5766 5765 5763 5762 5761 5760 5760 5759
5753 5755 5756 5757 5757 5758 5759 5760 5763 5763 5764 5764 5765 5767 5766 5766 5767 5769 5771 5773 5774 5775 5776 5775 5776 5779 5780 5781 5781 5781 5780 5778 5776 5773 5768 5766 5764 5763 5762 5761 5760 5759 5758
5746 5748 5749 5750 5751 5751 5751 5752 5754 5756 5757 5758 5759 5760 5762 5762 5763 5765 5765 5767 5770 5772 5773 5774 5776 5777 5778 5778 5777 5778 5778 5776 5775 5773 5769 5766 5764 5762 5761 5760 5759 5758 5758
5736 5737 5739 5742 5743 5743 5744 5745 5746 5748 5750 5751 5753 5755 5756 5756 5757 5758 5759 5761 5764 5766 5767 5769 5770 5771 5772 5772 5771 5772 5773 5773 5772 5771 5769 5766 5764 5762 5760 5759 5758 5757 5756
5726 5727 5729 5732 5733 5734 5736 5737 5739 5741 5743 5745 5746 5747 5748 5749 5750 5752 5753 5755 5758 5760 5761 5763 5763 5763 5763 5765 5766 5767 5768 5769 5768 5768 5768 5767 5766 5762 5759 5757 5756 5755 5754
5716 5717 5719 5721 5723 5725 5727 5728 5729 5730 5733 5736 5738 5740 5741 5742 5743 5745 5748 5750 5752 5753 5753 5755 5755 5756 5757 5759 5761 5762 5763 5765 5765 5765 5764 5766 5765 5763 5759 5756 5755 5753 5752
5704 5705 5707 5709 5712 5713 5713 5713 5714 5716 5720 5723 5727 5731 5733 5735 5736 5738 5741 5744 5747 5747 5747 5748 5748 5748 5748 5752 5751 5750 5755 5759 5760 5760 5761 5761 5762 5762 5759 5756 5754 5752 5750
5691 5693 5695 5697 5699 5700 5701 5702 5703 5705 5708 5712 5715 5720 5723 5726 5729 5731 5734 5737 5740 5741 5741 5742 5742 5740 5740 5744 5741 5736 5734 5739 5748 5755 5756 5756 5757 5759 5758 5756 5755 5752 5750
5680 5682 5684 5685 5687 5688 5689 5690 5691 5693 5695 5698 5702 5707 5712 5717 5721 5724 5729 5732 5735 5737 5737 5738 5738 5735 5732 5735 5738 5732 5725 5723 5731 5741 5748 5750 5751 5753 5755 5756 5755 5753 5750
5671 5672 5674 5674 5675 5676 5677 5677 5676 5677 5679 5684 5689 5694 5700 5706 5712 5717 5722 5726 5729 5732 5733 5734 5734 5733 5730 5728 5730 5733 5733 5732 5725 5725 5735 5742 5745 5747 5749 5751 5752 5752 5750
5663 5664 5664 5665 5665 5666 5667 5667 5667 5668 5671 5675 5679 5683 5688 5695 5701 5708 5714 5719 5723 5726 5729 5730 5731 5730 5729 5727 5726 5727 5727 5728 5728 5723 5721 5728 5734 5739 5742 5745 5746 5747 5747
5658 5657 5657 5657 5657 5658 5658 5659 5659 5660 5662 5665 5668 5671 5676 5683 5690 5697 5704 5711 5716 5720 5723 5725 5726 5727 5727 5726 5725 5725 5725 5723 5722 5721 5719 5720 5722 5728 5733 5736 5739 5740 5741